Home > Time Zones > World Clock > Weather > U.S.A. > Nome > Past weeks

Flag for U.S.A. Weather past 2 weeks in Nome, Alaska, U.S.A.

Now
58 °F

Rain. Fog.


Feels Like: 56 °F
Forecast: 55 / 63 °F
Wind: 9 mph from East

Location: Nome Airport

Current Time: Jul 6, 2015 at 7:50:17 AM

Latest Report: Jul 6, 2015 at 6:59 AM


Visibility: 1 mi

Pressure: 29.83 "Hg

Humidity: 100%

Dew point: 58 °F

Location of NomeLocation

Historic Weather in Nome — Graph

°F

Nome temperature yesterday

Maximum temperature yesterday: 69 °F (at 7:53 PM)
Minimum temperature yesterday: 55 °F (at 6:53 AM)
Average temperature yesterday: 62 °F

Past Weeks' High & Low Weather Summary

 TemperatureHumidityPressure
High71 °F (Jul 4, 8:53 PM)100% (Jun 21, 7:02 AM)30.10 "Hg (Jun 21, 7:02 AM)
Low42 °F (Jun 26, 3:53 AM)39% (Jul 4, 8:53 PM)29.63 "Hg (Jun 25, 9:57 PM)
Average50 °F85%29.92 "Hg
* Reported Jun 21 5:53 AM — Jul 6 5:57 AM, Nome, Weather by CustomWeather, © 2015

Note: Actual official high and low records may vary slightly from our data, if they occured in-between our weather recording intervals... More about our weather records

Advertising

Nome weather history for previous 24 hours

 ConditionsComfort  
Time TempWeatherWind HumidityBarometerVisibility
5:57 AM
Mon, Jul 6
58 °FLight rain. Mostly cloudy.9 mph97%29.84 "Hg2 mi
4:53 AM64 °FMostly cloudy.18 mph73%29.81 "Hg7 mi
3:53 AM66 °FMostly cloudy.16 mph63%29.80 "Hg9 mi
2:53 AM66 °FMostly cloudy.14 mph61%29.81 "Hg10 mi
1:53 AM66 °FSunny.16 mph61%29.82 "Hg10 mi
12:53 AM66 °FSunny.15 mph61%29.83 "Hg10 mi
11:53 PM
Sun, Jul 5
68 °FSunny.15 mph59%29.84 "Hg10 mi
10:53 PM69 °FSunny.16 mph57%29.85 "Hg10 mi
9:53 PM69 °FScattered clouds.17 mph55%29.88 "Hg9 mi
8:53 PM69 °FPartly sunny.17 mph55%29.89 "Hg10 mi
7:53 PM69 °FPartly sunny.17 mph55%29.92 "Hg10 mi
6:53 PM68 °FScattered clouds.16 mph55%29.95 "Hg10 mi
5:53 PM66 °FPassing clouds.15 mph61%29.96 "Hg10 mi
4:53 PM62 °FBroken clouds.14 mph70%29.97 "Hg10 mi
3:53 PM60 °FPartly sunny.13 mph75%29.97 "Hg10 mi
2:53 PM61 °FBroken clouds.8 mph75%29.98 "Hg10 mi
1:53 PM60 °FCloudy.9 mph78%30.00 "Hg10 mi
12:53 PM58 °FOvercast.12 mph84%30.00 "Hg10 mi
11:53 AM59 °FBroken clouds.12 mph81%29.99 "Hg10 mi
10:53 AM57 °FBroken clouds.14 mph87%29.99 "Hg10 mi
9:53 AM58 °FBroken clouds.15 mph81%29.97 "Hg10 mi
8:53 AM58 °FBroken clouds.14 mph81%29.98 "Hg10 mi
7:53 AM57 °FBroken clouds.8 mph83%29.99 "Hg10 mi
Weather by CustomWeather, © 2015

See weather overviewHow to use our weather pages